Flag for Ireland Weather past 2 weeks in Galway, Ireland

Now
50 °F

Passing clouds.


Feels Like: 45 °F
Forecast: 55 / 58 °F
Wind: 14 mph from Southwest

Location: Shannon Airport

Current Time: Oct 25, 2014 at 2:38:21 AM

Latest Report: Oct 25, 2014 at 2:00 AM


Visibility: N/A

Pressure: 29.86 "Hg

Humidity: 94%

Dew point: 48 °F

Location of GalwayLocation

Historic Weather in Galway — Graph

°F

Galway temperature yesterday

Maximum temperature yesterday: 54 °F (at 12:00 PM)
Minimum temperature yesterday: 50 °F (at 2:00 AM)
Average temperature yesterday: 51 °F

Past Weeks' High & Low Weather Summary

 TemperatureHumidityPressure
High64 °F (Oct 16, 12:30 PM)100% (Oct 10, 10:00 PM)30.33 "Hg (Oct 10, 10:00 PM)
Low36 °F (Oct 14, 5:30 AM)44% (Oct 21, 1:30 PM)29.18 "Hg (Oct 17, 8:00 PM)
Average53 °F83%29.73 "Hg
* Reported Oct 10 1:00 AM — Oct 25 1:30 AM, Galway, Weather by CustomWeather, © 2014

Note: Actual official high and low records may vary slightly from our data, if they occured in-between our weather recording intervals... More about our weather records

Advertising

Galway weather history for previous 24 hours

 ConditionsComfort  
Time TempWeatherWind HumidityBarometerVisibility
1:30 AM
Oct 25
50 °FPartly cloudy.12 mph94%29.89 "Hg6 mi
1:00 AM50 °FPassing clouds.8 mph88%29.89 "HgN/A
12:30 AM50 °FPassing clouds.9 mph88%29.89 "HgN/A
12:00 AM48 °FPartly cloudy.9 mph94%29.89 "HgN/A
11:30 PM
Oct 24
50 °FPartly cloudy.12 mph94%29.89 "Hg3 mi
11:00 PM50 °FPartly cloudy.12 mph94%29.89 "Hg5 mi
10:30 PM50 °FPassing clouds.10 mph88%29.89 "HgN/A
10:00 PM50 °FLight rain. Partly cloudy.10 mph94%29.92 "HgN/A
9:30 PM50 °FSprinkles. Partly cloudy.10 mph88%29.89 "HgN/A
9:00 PM50 °FSprinkles. Passing clouds.12 mph88%29.89 "HgN/A
8:30 PM50 °FPassing clouds.7 mph88%29.89 "HgN/A
8:00 PM50 °FSprinkles. Partly cloudy.9 mph94%29.89 "HgN/A
7:30 PM50 °FSprinkles. Partly cloudy.15 mph94%29.89 "Hg5 mi
7:00 PM52 °FSprinkles. Broken clouds.12 mph88%29.89 "HgN/A
6:30 PM52 °FBroken clouds.9 mph88%29.86 "HgN/A
6:00 PM52 °FScattered clouds.16 mph82%29.86 "HgN/A
5:30 PM52 °FScattered clouds.17 mph82%29.86 "HgN/A
5:00 PM52 °FPassing clouds.16 mph88%29.86 "HgN/A
4:30 PM54 °FScattered clouds.20 mph77%29.86 "HgN/A
4:00 PM54 °FSprinkles. Scattered clouds.18 mph77%29.86 "HgN/A
3:30 PM54 °FScattered clouds.17 mph77%29.86 "HgN/A
3:00 PM52 °FPartly sunny.16 mph88%29.86 "HgN/A
2:30 PM54 °FBroken clouds.15 mph72%29.86 "HgN/A
2:00 PM52 °FBroken clouds.18 mph82%29.86 "HgN/A
1:30 PM54 °FBroken clouds.15 mph72%29.86 "HgN/A
1:00 PM52 °FLight rain. Broken clouds.15 mph82%29.89 "HgN/A
12:30 PM52 °FLight rain. Broken clouds.18 mph77%29.89 "HgN/A
12:00 PM54 °FLight rain. Broken clouds.13 mph67%29.89 "HgN/A
11:30 AM52 °FPartly sunny.12 mph77%29.89 "HgN/A
10:30 AM52 °FPartly sunny.13 mph77%29.89 "HgN/A
10:00 AM52 °FPartly sunny.12 mph77%29.89 "HgN/A
9:30 AM52 °FPartly sunny.12 mph77%29.89 "HgN/A
9:00 AM50 °FPassing clouds.10 mph82%29.89 "HgN/A
8:30 AM50 °FPassing clouds.9 mph88%29.86 "HgN/A
8:00 AM50 °FPassing clouds.9 mph88%29.86 "HgN/A
7:30 AM50 °FPassing clouds.9 mph88%29.86 "HgN/A
7:00 AM50 °FPassing clouds.7 mph88%29.86 "HgN/A
6:30 AM50 °FPassing clouds.8 mph88%29.89 "HgN/A
6:00 AM50 °FSprinkles. Passing clouds.8 mph94%29.89 "HgN/A
5:30 AM50 °FPassing clouds.7 mph88%29.86 "HgN/A
5:00 AM50 °FPassing clouds.7 mph94%29.86 "HgN/A
4:30 AM50 °FPassing clouds.12 mph94%29.89 "HgN/A
4:00 AM50 °FPassing clouds.8 mph94%29.89 "HgN/A
3:30 AM50 °FPassing clouds.8 mph94%29.89 "HgN/A
3:00 AM50 °FSprinkles. Passing clouds.12 mph94%29.89 "Hg5 mi
2:30 AM50 °FPartly cloudy.6 mph94%29.89 "HgN/A
2:00 AM50 °FPassing clouds.7 mph94%29.89 "HgN/A
Weather by CustomWeather, © 2014

See weather overviewHow to use our weather pages